Weather History for KEST - March, 2012

Change the Weather History Date:

Monday, March 5, 2012

  Actual Average Record
Temperature  
Mean Temperature 19 °F 28 °F  
Max Temperature 38 °F 36 °F 62 °F (1968)
Min Temperature -1 °F 19 °F -18 °F (1960)
Degree Days  
Heating Degree Days 46 37  
Month to date heating degree days 204 191  
Since 1 July heating degree days 5297 6106  
Cooling Degree Days 0 0  
Month to date cooling degree days 0 0  
Year to date cooling degree days 0 0  
Moisture  
Dew Point 10 °F    
Average Humidity 86    
Maximum Humidity 96    
Minimum Humidity 75    
Precipitation  
Precipitation 0.00 in 0.03 in 0.60 in (1962)
Month to date precipitation 0.12 0.12  
Year to date precipitation 2.04  
Sea Level Pressure  
Sea Level Pressure 30.13 in    
Wind  
Wind Speed 14 mph (SSW)    
Max Wind Speed 26 mph    
Max Gust Speed 31 mph    
Visibility 5 miles    
Events Fog    
T = Trace of Precipitation, MM = Missing Value Source: NWS Daily Summary

Daily Weather History Graph

Daily Weather History Graph

Search for Another Location

Airport or City:

Trip Planner

Search our weather history database for the weather conditions in past years. The results will help you decide how hot, cold, wet, or windy it might be!

Date:

Astronomy

Mar. 05, 2012 Rise Set
Actual Time 6:47 AM CST 6:13 PM CST
Civil Twilight 6:19 AM CST 6:42 PM CST
Nautical Twilight 5:46 AM CST 7:15 PM CST
Astronomical Twilight 5:12 AM CST 7:48 PM CST
Moon 3:29 PM CST (3/5) 4:52 AM CST (3/5)
Length of Visible Light 12h 23m
Length of Day
11h 25m
Waxing Gibbous, 91% of the Moon is Illuminated
Mar 5
Waxing Gibbous
Mar 8
Full
Mar 14
Last Quarter
Mar 22
New
Mar 30
First Quarter

Hourly Weather History & Observations

Time (CST) Temp. Windchill Dew Point Humidity Pressure Visibility Wind Dir Wind Speed Gust Speed Precip Events Conditions
12:52 AM 10.9 °F -0.8 °F 9.0 °F 92% 30.20 in 6.0 mi NW 8.1 mph - N/A   Clear
1:24 AM 3.2 °F -7.8 °F 1.4 °F 92% 30.14 in 1.2 mi WNW 5.8 mph - N/A   Clear
1:26 AM 1.4 °F -9.9 °F 1.4 °F 100% 30.14 in 0.8 mi West 5.8 mph - N/A   Mist
1:40 AM 3.2 °F -10.3 °F 1.4 °F 92% 30.14 in 1.2 mi WSW 8.1 mph - N/A   Partly Cloudy
1:45 AM 5.0 °F -9.1 °F 3.2 °F 92% 30.15 in 3.0 mi SW 9.2 mph - N/A   Partly Cloudy
1:52 AM 5.0 °F -9.1 °F 3.0 °F 92% 30.23 in 4.0 mi SW 9.2 mph - N/A   Mostly Cloudy
2:00 AM 3.2 °F -13.1 °F 1.4 °F 92% 30.16 in 5.0 mi WSW 11.5 mph - N/A   Scattered Clouds
2:23 AM 8.6 °F -3.7 °F 6.8 °F 92% 30.16 in 8.0 mi WSW 8.1 mph - N/A   Mostly Cloudy
2:52 AM 10.0 °F 3.6 °F 7.0 °F 87% 30.24 in 7.0 mi West 3.5 mph - N/A   Overcast
3:12 AM 8.6 °F 2.0 °F 6.8 °F 92% 30.16 in 6.0 mi West 3.5 mph - N/A   Scattered Clouds
3:42 AM 3.2 °F -6.2 °F 1.4 °F 92% 30.16 in 1.5 mi West 4.6 mph - N/A   Clear
3:45 AM 3.2 °F -7.8 °F 1.4 °F 92% 30.16 in 0.8 mi West 5.8 mph - N/A   Clear
3:52 AM 1.9 °F -7.6 °F -0.0 °F 91% 30.25 in 0.5 mi WSW 4.6 mph - N/A Fog Light Freezing Fog
4:09 AM 3.2 °F -6.2 °F 1.4 °F 92% 30.16 in 1.2 mi West 4.6 mph - N/A   Clear
4:16 AM 3.2 °F -7.8 °F 1.4 °F 92% 30.17 in 3.0 mi WSW 5.8 mph - N/A   Clear
4:50 AM 1.4 °F -6.2 °F -0.4 °F 92% 30.16 in 2.0 mi SW 3.5 mph - N/A   Clear
4:52 AM 1.9 °F -5.6 °F -0.0 °F 91% 30.25 in 2.0 mi SW 3.5 mph - N/A   Clear
5:02 AM 3.2 °F - 1.4 °F 92% 30.17 in 1.0 mi Calm Calm - N/A   Clear
5:19 AM 1.4 °F -9.9 °F -0.4 °F 92% 30.18 in 1.5 mi SW 5.8 mph - N/A   Clear
5:26 AM 1.4 °F -9.9 °F -0.4 °F 92% 30.18 in 3.0 mi SW 5.8 mph - N/A   Clear
5:34 AM 3.2 °F -7.8 °F 1.4 °F 92% 30.18 in 1.8 mi SSW 5.8 mph - N/A   Clear
5:39 AM -0.4 °F -12.0 °F -2.2 °F 92% 30.18 in 0.8 mi SSW 5.8 mph - N/A   Clear
5:50 AM -0.4 °F -13.4 °F -2.2 °F 92% 30.17 in 1.5 mi South 6.9 mph - N/A   Clear
5:52 AM -0.9 °F -14.1 °F -2.9 °F 91% 30.26 in 2.5 mi SSW 6.9 mph - N/A   Partly Cloudy
5:59 AM -0.4 °F -13.4 °F -2.2 °F 92% 30.17 in 4.0 mi South 6.9 mph - N/A   Partly Cloudy
6:06 AM -0.4 °F -13.4 °F -2.2 °F 92% 30.17 in 1.5 mi South 6.9 mph - N/A   Partly Cloudy
6:11 AM 1.4 °F -11.3 °F -0.4 °F 92% 30.17 in 0.8 mi South 6.9 mph - N/A   Mist
6:16 AM 1.4 °F -11.3 °F -0.4 °F 92% 30.16 in 1.0 mi South 6.9 mph - N/A   Scattered Clouds
6:21 AM 3.2 °F -10.3 °F 1.4 °F 92% 30.17 in 2.5 mi South 8.1 mph - N/A   Scattered Clouds
6:28 AM 5.0 °F -8.1 °F 3.2 °F 92% 30.17 in 3.0 mi South 8.1 mph - N/A   Scattered Clouds
6:37 AM 6.8 °F -4.8 °F 3.2 °F 85% 30.18 in 3.0 mi South 6.9 mph - N/A   Mostly Cloudy
6:52 AM 7.0 °F -3.3 °F 5.0 °F 92% 30.27 in 4.0 mi South 5.8 mph - N/A   Scattered Clouds
9:52 AM 21.0 °F 8.6 °F 18.0 °F 88% 30.23 in 7.0 mi South 12.7 mph - N/A   Partly Cloudy
10:52 AM 25.0 °F 12.2 °F 21.0 °F 85% 30.20 in 8.0 mi South 16.1 mph - N/A   Clear
11:52 AM 27.0 °F 13.9 °F 23.0 °F 85% 30.17 in 9.0 mi South 18.4 mph - N/A   Clear
12:52 PM 30.9 °F 17.8 °F 26.1 °F 82% 30.12 in 7.0 mi South 23.0 mph 31.1 mph N/A   Clear
1:52 PM 32.0 °F 18.4 °F 27.0 °F 82% 30.08 in 8.0 mi South 26.5 mph 31.1 mph N/A   Clear
2:52 PM 34.0 °F 22.4 °F 28.9 °F 82% 30.04 in 9.0 mi South 20.7 mph - N/A   Clear
3:52 PM 36.0 °F 25.3 °F 30.0 °F 79% 30.01 in 10.0 mi SSE 19.6 mph - N/A   Clear
4:52 PM 37.9 °F 30.0 °F 32.0 °F 79% 30.00 in 10.0 mi South 12.7 mph - N/A   Clear
5:52 PM 37.9 °F 29.6 °F 32.0 °F 79% 29.99 in 10.0 mi South 13.8 mph - N/A   Clear
6:52 PM 37.0 °F 28.1 °F 30.9 °F 79% 29.97 in 10.0 mi South 15.0 mph - N/A   Clear
7:52 PM 36.0 °F 26.0 °F 30.0 °F 79% 29.95 in 10.0 mi South 17.3 mph - N/A   Clear
8:52 PM 36.0 °F 25.6 °F 28.9 °F 76% 29.93 in 10.0 mi South 18.4 mph - N/A   Clear
9:52 PM 36.0 °F 25.0 °F 28.0 °F 73% 29.91 in 10.0 mi South 20.7 mph - N/A   Clear
10:52 PM 35.1 °F 24.5 °F 28.0 °F 76% 29.88 in 10.0 mi South 18.4 mph - N/A   Clear
11:52 PM 34.0 °F 22.7 °F 28.0 °F 79% 29.84 in 10.0 mi South 19.6 mph - N/A   Clear